Weather in Boulder

United States     40°10′08″N   105°06′18″W
temp.,
°C
wind,
m/s
gust,
m/s
humid.,
%
clouds,
%
prec.,
mm/h
press.,
hPa
HPBL,
m
7 may, fri
fri700:00+10nnw22605 0.0 101610
03:00+8n22600 0.0 101510
06:00+7ssw115614 0.0 101410
09:00+17s11346 0.0 1012237
12:00+24se2323100 0.0 1007700
15:00+27ssw9718100 0.0 10034037
18:00+23sse33336 0.0 10041030
21:00+15ssw33535 0.0 100413
8 may, sat
sat800:00+13ssw225535 0.0 100312
03:00+11s114666 0.0 100110
06:00+11w3343100 0.0 100111
09:00+20wsw41027100 0.0 9991894
12:00+23w9112116 0.0 9982947
15:00+22wnw9102295 0.0 9973094
18:00+17e3238100 0.0 1000452
21:00+10se712663 1.2 1008403
9 may, sun
sun900:00+6wsw58666 1.3 1011157
03:00+4nne22505 0.0 101213
06:00+2ssw11525 0.0 101410
09:00+9s223696 0.0 1013659
12:00+13se4426100 0.0 10122222
15:00+13s3431100 0.0 10112307
18:00+11s3448100 0.1 10131655
21:00+4ne7895100 3.3 1020602
10 may, mon
mon1000:00+3se1199100 12.6 102260
03:00+2s1299100 4.1 1022197
06:00+1sw11100100 7.3 1023114
09:00+2ese36100100 3.6 1023414
12:00+2ese48100100 6.8 1022489
15:00+2e510100100 3.9 1022512
18:00+2ese49100100 6.1 1022460
21:00+1se38100100 3.2 1024270
11 may, tue
tue1100:00+1se25100100 4.8 1023194
03:00+1ese25100100 1.8 1022176
06:00+1ene23100100 1.8 1021139
09:00+2n23100100 0.1 1021161
12:00+2n3395100 0.1 1020467
15:00+5n2384100 0.1 1019687
18:00+6nnw2285100 0.1 1019346
21:00+2wsw2299100 0.0 102341